GW2746 Weather Reports


Display with metric or nautical units.
time (UTC)temp
F
wind
direction
speed
MPH
gust
MPH
rain 1hr
in
rain 24hr
in
rain mn
in
humidity
%
barometer
mb
20260510221121 72 223 2.0 6.0 0.00 0.00 0.00 32 1020.0
20260510220627 72 200 3.0 6.0 0.00 0.00 0.00 31 1019.9
20260510220123 73 245 3.0 11.0 0.00 0.00 0.00 31 1020.0
20260510215627 74 279 5.0 7.0 0.00 0.00 0.00 30 1019.9
20260510215126 74 297 3.0 5.0 0.00 0.00 0.00 30 1019.8
20260510214637 74 160 1.0 5.0 0.00 0.00 0.00 30 1019.8
20260510214117 74 343 0.0 6.0 0.00 0.00 0.00 31 1019.8
20260510213620 73 9 3.0 6.0 0.00 0.00 0.00 31 1019.9
20260510213137 73 344 3.0 10.0 0.00 0.00 0.00 30 1020.0
20260510212624 73 211 3.0 10.0 0.00 0.00 0.00 31 1020.0
20260510212121 72 262 4.0 7.0 0.00 0.00 0.00 31 1020.0
20260510211626 72 14 3.0 8.0 0.00 0.00 0.00 31 1020.2
20260510211122 73 285 4.0 10.0 0.00 0.00 0.00 31 1020.2
20260510210630 72 19 2.0 10.0 0.00 0.00 0.00 32 1020.1
20260510210133 72 340 4.0 9.0 0.00 0.00 0.00 31 1020.2
20260510205635 72 277 2.0 9.0 0.00 0.00 0.00 31 1020.2
20260510205133 72 266 6.0 10.0 0.00 0.00 0.00 31 1020.2
20260510204622 71 223 6.0 10.0 0.00 0.00 0.00 31 1020.3
20260510204120 72 260 4.0 7.0 0.00 0.00 0.00 31 1020.4
20260510203644 72 276 2.0 5.0 0.00 0.00 0.00 31 1020.4
20260510203120 72 299 1.0 7.0 0.00 0.00 0.00 31 1020.5
20260510202645 72 219 1.0 7.0 0.00 0.00 0.00 30 1020.6
20260510202126 72 194 4.0 11.0 0.00 0.00 0.00 31 1020.6
20260510201650 72 318 2.0 11.0 0.00 0.00 0.00 30 1020.6
20260510201131 72 240 2.0 9.0 0.00 0.00 0.00 32 1020.6
20260510200656 72 309 4.0 9.0 0.00 0.00 0.00 32 1020.8
20260510200158 72 98 3.0 7.0 0.00 0.00 0.00 31 1020.7
20260510195619 73 65 4.0 8.0 0.00 0.00 0.00 30 1020.7
20260510195137 72 343 5.0 9.0 0.00 0.00 0.00 32 1020.9
20260510194623 72 319 5.0 9.0 0.00 0.00 0.00 31 1021.0
20260510194122 72 333 4.0 9.0 0.00 0.00 0.00 32 1021.1
20260510193628 71 253 4.0 13.0 0.00 0.00 0.00 31 1021.1
20260510193125 71 250 6.0 13.0 0.00 0.00 0.00 32 1021.2
20260510192634 72 229 4.0 7.0 0.00 0.00 0.00 32 1021.2
20260510192137 71 228 4.0 13.0 0.00 0.00 0.00 31 1021.3
20260510191624 71 281 6.0 13.0 0.00 0.00 0.00 32 1021.4
20260510191121 71 241 3.0 12.0 0.00 0.00 0.00 32 1021.4
20260510190624 71 171 5.0 15.0 0.00 0.00 0.00 33 1021.5
20260510190148 70 302 6.0 15.0 0.00 0.00 0.00 33 1021.5
20260510185629 70 356 3.0 10.0 0.00 0.00 0.00 31 1021.6
20260510185146 71 194 6.0 10.0 0.00 0.00 0.00 32 1021.7
20260510184630 70 29 2.0 11.0 0.00 0.00 0.00 33 1021.7
20260510184132 69 270 4.0 11.0 0.00 0.00 0.00 33 1021.7
20260510183622 69 212 2.0 8.0 0.00 0.00 0.00 32 1021.7
20260510183142 69 303 2.0 8.0 0.00 0.00 0.00 35 1021.8
20260510182624 68 256 3.0 11.0 0.00 0.00 0.00 34 1021.8
20260510182126 68 356 7.0 11.0 0.00 0.00 0.00 33 1022.0
20260510181633 68 229 5.0 9.0 0.00 0.00 0.00 34 1022.0
20260510181132 68 267 5.0 8.0 0.00 0.00 0.00 33 1022.1
20260510180619 67 206 2.0 10.0 0.00 0.00 0.00 34 1022.1
20260510180158 67 293 1.0 10.0 0.00 0.00 0.00 33 1022.2
20260510175622 67 268 3.0 10.0 0.00 0.00 0.00 35 1022.3
20260510175124 67 221 4.0 10.0 0.00 0.00 0.00 32 1022.2
20260510174628 68 235 3.0 6.0 0.00 0.00 0.00 33 1022.2
20260510174127 67 351 1.0 8.0 0.00 0.00 0.00 33 1022.2
20260510173630 67 260 4.0 8.0 0.00 0.00 0.00 33 1022.2
20260510173115 67 291 2.0 8.0 0.00 0.00 0.00 34 1022.2
20260510172646 67 293 2.0 6.0 0.00 0.00 0.00 35 1022.3
20260510172126 67 199 3.0 9.0 0.00 0.00 0.00 35 1022.4
20260510171649 67 237 4.0 9.0 0.00 0.00 0.00 35 1022.4
20260510171126 66 233 3.0 6.0 0.00 0.00 0.00 35 1022.4
20260510170650 66 272 2.0 6.0 0.00 0.00 0.00 35 1022.6
20260510170150 66 338 1.0 11.0 0.00 0.00 0.00 33 1022.6
20260510165658 66 293 3.0 11.0 0.00 0.00 0.00 37 1022.7
20260510165137 66 279 2.0 10.0 0.00 0.00 0.00 35 1022.6
20260510164621 65 281 4.0 10.0 0.00 0.00 0.00 35 1022.7
20260510164122 65 241 4.0 7.0 0.00 0.00 0.00 36 1022.7
20260510163629 65 266 5.0 7.0 0.00 0.00 0.00 37 1022.7
20260510163126 64 168 2.0 8.0 0.00 0.00 0.00 37 1022.7
20260510162628 65 224 5.0 8.0 0.00 0.00 0.00 37 1022.7
20260510162124 64 164 3.0 6.0 0.00 0.00 0.00 36 1022.6
20260510161627 64 350 4.0 7.0 0.00 0.00 0.00 35 1022.7
20260510161125 64 266 3.0 5.0 0.00 0.00 0.00 36 1022.7
20260510160632 64 346 2.0 7.0 0.00 0.00 0.00 35 1022.7
20260510160132 64 256 3.0 7.0 0.00 0.00 0.00 37 1022.6
20260510155635 64 194 2.0 5.0 0.00 0.00 0.00 38 1022.6
20260510155132 63 158 3.0 6.0 0.00 0.00 0.00 39 1022.7
20260510154619 63 197 2.0 6.0 0.00 0.00 0.00 37 1022.7
20260510154120 62 232 3.0 5.0 0.00 0.00 0.00 38 1022.7
20260510153624 62 273 1.0 6.0 0.00 0.00 0.00 38 1022.7
20260510153138 62 227 2.0 7.0 0.00 0.00 0.00 38 1022.8
20260510152621 61 162 1.0 7.0 0.00 0.00 0.00 38 1022.8
20260510152140 61 271 3.0 5.0 0.00 0.00 0.00 37 1022.7
20260510151621 61 289 2.0 5.0 0.00 0.00 0.00 37 1022.7
20260510151120 61 179 2.0 5.0 0.00 0.00 0.00 38 1022.7
20260510150624 61 160 2.0 6.0 0.00 0.00 0.00 39 1022.7
20260510150125 60 189 1.0 6.0 0.00 0.00 0.00 39 1022.6
20260510145627 60 289 2.0 7.0 0.00 0.00 0.00 41 1022.6
20260510145126 60 264 3.0 7.0 0.00 0.00 0.00 38 1022.8
20260510144650 60 216 2.0 5.0 0.00 0.00 0.00 40 1022.6
20260510144131 59 216 2.0 6.0 0.00 0.00 0.00 41 1022.5
20260510143635 59 216 4.0 6.0 0.00 0.00 0.00 42 1022.5
20260510143137 59 241 2.0 6.0 0.00 0.00 0.00 41 1022.4
20260510142622 59 238 2.0 4.0 0.00 0.00 0.00 41 1022.3
20260510142123 59 281 2.0 4.0 0.00 0.00 0.00 40 1022.2
20260510141646 59 239 2.0 4.0 0.00 0.00 0.00 41 1022.2
20260510141123 58 227 1.0 4.0 0.00 0.00 0.00 40 1022.1
20260510140630 58 135 2.0 4.0 0.00 0.00 0.00 44 1022.0
20260510140130 57 169 1.0 4.0 0.00 0.00 0.00 43 1022.0
20260510135618 57 279 2.0 3.0 0.00 0.00 0.00 46 1022.1
20260510135120 56 358 0.0 3.0 0.00 0.00 0.00 49 1022.1
20260510134626 56 268 0.0 4.0 0.00 0.00 0.00 49 1022.1
20260510134128 55 216 2.0 4.0 0.00 0.00 0.00 52 1022.1
20260510133630 54 200 0.0 2.0 0.00 0.00 0.00 53 1022.0
20260510133128 54 200 0.0 2.0 0.00 0.00 0.00 53 1022.0
20260510132632 53 200 1.0 3.0 0.00 0.00 0.00 53 1021.9
20260510132131 52 200 0.0 3.0 0.00 0.00 0.00 56 1022.0
20260510131634 52 163 1.0 2.0 0.00 0.00 0.00 59 1021.9
20260510131134 51 58 0.0 1.0 0.00 0.00 0.00 60 1021.9
20260510130658 51 58 0.0 0.0 0.00 0.00 0.00 62 1021.8
20260510130121 50 58 0.0 0.0 0.00 0.00 0.00 65 1021.7
20260510125627 49 58 0.0 0.0 0.00 0.00 0.00 66 1021.7
20260510125125 49 58 0.0 0.0 0.00 0.00 0.00 67 1021.7
20260510124633 48 58 0.0 0.0 0.00 0.00 0.00 68 1021.7
20260510124151 48 58 0.0 0.0 0.00 0.00 0.00 69 1021.7
20260510123632 47 58 0.0 0.0 0.00 0.00 0.00 68 1021.6
20260510123132 47 58 0.0 0.0 0.00 0.00 0.00 69 1021.5
20260510122619 46 58 0.0 0.0 0.00 0.00 0.00 70 1021.4
20260510122140 46 58 0.0 0.0 0.00 0.00 0.00 70 1021.4
20260510121627 45 58 0.0 0.0 0.00 0.00 0.00 71 1021.3
20260510121145 45 58 0.0 0.0 0.00 0.00 0.00 70 1021.4
20260510120627 45 58 0.0 0.0 0.00 0.00 0.00 70 1021.3
20260510120123 45 58 0.0 0.0 0.00 0.00 0.00 69 1021.2
20260510115625 44 58 0.0 0.0 0.00 0.00 0.00 70 1021.1
20260510115122 44 58 0.0 0.0 0.00 0.00 0.00 70 1021.1
20260510114630 44 58 0.0 0.0 0.00 0.00 0.00 70 1021.1
20260510114147 44 58 0.0 0.0 0.00 0.00 0.00 69 1021.1
20260510113631 44 58 0.0 0.0 0.00 0.00 0.00 69 1021.1
20260510113132 44 58 0.0 0.0 0.00 0.00 0.00 68 1021.0
20260510112658 44 58 0.0 0.0 0.00 0.00 0.00 69 1020.9
20260510112134 44 58 0.0 0.0 0.00 0.00 0.00 69 1020.9
20260510111620 44 58 0.0 0.0 0.00 0.00 0.00 70 1021.1
20260510111120 44 58 0.0 0.0 0.00 0.00 0.00 70 1021.0
20260510110627 44 58 0.0 0.0 0.00 0.00 0.00 70 1021.0
20260510110128 44 58 0.0 0.0 0.00 0.00 0.00 70 1021.0
20260510105633 44 58 0.0 0.0 0.00 0.00 0.00 68 1020.9
20260510105132 44 58 0.0 0.0 0.00 0.00 0.00 69 1020.8
20260510104622 44 58 0.0 0.0 0.00 0.00 0.00 69 1020.8
20260510104120 44 58 0.0 0.0 0.00 0.00 0.00 69 1020.9
20260510103626 44 58 0.0 0.0 0.00 0.00 0.00 68 1020.9
20260510103125 44 58 0.0 0.0 0.00 0.00 0.00 68 1020.8
20260510102632 45 58 0.0 0.0 0.00 0.00 0.00 68 1020.8
20260510102134 45 58 0.0 0.0 0.00 0.00 0.00 66 1020.7
20260510101621 45 58 0.0 0.0 0.00 0.00 0.00 63 1020.4
20260510101118 45 58 0.0 0.0 0.00 0.00 0.00 62 1020.3
20260510100624 45 58 0.0 0.0 0.00 0.00 0.00 62 1020.3
20260510100129 45 58 0.0 0.0 0.00 0.00 0.00 63 1020.3
20260510095633 45 58 0.0 0.0 0.00 0.00 0.00 64 1020.2
20260510095132 45 58 0.0 0.0 0.00 0.00 0.00 63 1020.2
20260510094618 46 58 0.0 0.0 0.00 0.00 0.00 60 1020.1
20260510094137 46 58 0.0 0.0 0.00 0.00 0.00 59 1020.0
20260510093624 46 58 0.0 0.0 0.00 0.00 0.00 58 1019.8
20260510093122 46 58 0.0 0.0 0.00 0.00 0.00 58 1019.8
20260510092625 46 58 0.0 0.0 0.00 0.00 0.00 58 1019.8
20260510092141 46 58 0.0 0.0 0.00 0.00 0.00 58 1019.7
20260510091628 46 58 0.0 0.0 0.00 0.00 0.00 58 1019.6
20260510091148 46 58 0.0 0.0 0.00 0.00 0.00 58 1019.6
20260510090651 46 58 0.0 0.0 0.00 0.00 0.00 59 1019.4
20260510090153 46 58 0.0 0.0 0.00 0.00 0.00 59 1019.5
20260510085623 46 58 0.0 0.0 0.00 0.00 0.00 59 1019.4
20260510085121 46 58 0.0 0.0 0.00 0.00 0.00 59 1019.5
20260510084645 47 58 0.0 0.0 0.00 0.00 0.00 59 1019.6
20260510084122 47 58 0.0 0.0 0.00 0.00 0.00 58 1019.5
20260510083627 47 58 0.0 0.0 0.00 0.00 0.00 57 1019.4
20260510083125 47 58 0.0 0.0 0.00 0.00 0.00 57 1019.5
20260510082630 47 58 0.0 0.0 0.00 0.00 0.00 57 1019.3
20260510082128 48 58 0.0 0.0 0.00 0.00 0.00 56 1019.2
20260510081651 48 58 0.0 0.0 0.00 0.00 0.00 55 1019.1
20260510081128 48 58 0.0 0.0 0.00 0.00 0.00 55 1019.1
20260510080618 48 58 0.0 0.0 0.00 0.00 0.00 54 1019.1
20260510080123 49 58 0.0 0.0 0.00 0.00 0.00 54 1019.3
20260510075647 49 58 0.0 0.0 0.00 0.00 0.00 52 1019.3
20260510075145 50 58 0.0 0.0 0.00 0.00 0.00 51 1019.1
20260510074628 50 58 0.0 0.0 0.00 0.00 0.00 50 1018.9
20260510074127 50 58 0.0 0.0 0.00 0.00 0.00 49 1018.9
20260510073649 51 58 0.0 1.0 0.00 0.00 0.00 49 1018.7
20260510073126 51 58 0.0 2.0 0.00 0.00 0.00 48 1018.7
20260510072630 51 79 0.0 2.0 0.00 0.00 0.00 47 1018.7
20260510072130 51 71 0.0 2.0 0.00 0.00 0.00 48 1018.6
20260510071637 52 56 1.0 3.0 0.00 0.00 0.00 46 1018.6
20260510071130 52 50 0.0 3.0 0.00 0.00 0.00 46 1018.6
20260510070618 52 61 2.0 3.0 0.00 0.00 0.00 46 1018.7
20260510070121 52 35 1.0 3.0 0.00 0.00 0.00 46 1018.5
20260510065628 52 70 1.0 4.0 0.00 0.00 0.00 46 1018.6
20260510065127 52 35 1.0 4.0 0.00 0.00 0.00 47 1018.7
20260510064619 52 354 1.0 3.0 0.00 0.00 0.00 47 1018.6
20260510064132 52 14 1.0 3.0 0.00 0.00 0.00 47 1018.5
20260510063619 52 347 1.0 3.0 0.00 0.00 0.00 48 1018.4
20260510063120 52 48 0.0 2.0 0.00 0.00 0.00 48 1018.4
20260510062628 52 54 0.0 0.0 0.00 0.00 0.00 48 1018.6
20260510062126 53 54 0.0 1.0 0.00 0.00 0.00 48 1018.4
20260510061632 53 54 0.0 1.0 0.00 0.00 0.00 47 1018.5
20260510061152 53 54 0.0 1.0 0.00 0.00 0.00 47 1018.4
20260510060621 54 54 0.0 2.0 0.00 0.00 0.00 45 1018.3
20260510060120 54 54 1.0 3.0 0.00 0.00 0.00 45 1018.1
20260510055628 54 352 2.0 3.0 0.00 0.00 0.00 44 1017.9
20260510055145 55 9 1.0 4.0 0.00 0.00 0.00 44 1017.6
20260510054649 55 87 1.0 4.0 0.00 0.00 0.00 43 1017.5
20260510054132 55 50 1.0 4.0 0.00 0.00 0.00 43 1017.3
20260510053619 55 68 1.0 3.0 0.00 0.00 0.00 43 1017.1
20260510053121 55 26 1.0 5.0 0.00 0.00 0.00 43 1017.1
20260510052628 56 47 2.0 6.0 0.00 0.00 0.00 43 1017.1
20260510052129 56 49 3.0 6.0 0.00 0.00 0.00 42 1017.0
20260510051633 56 31 3.0 6.0 0.00 0.00 0.00 42 1016.9
20260510051152 56 31 2.0 6.0 0.00 0.00 0.00 42 1017.8
20260510050655 56 54 1.0 4.0 0.00 0.00 0.00 42 1017.8
20260510050118 57 51 0.0 4.0 0.00 0.00 0.00 42 1017.7
20260510045618 57 40 3.0 7.0 0.00 0.00 0.00 41 1017.6
20260510045137 57 358 2.0 7.0 0.00 0.00 0.00 41 1017.5
20260510044624 57 23 2.0 5.0 0.00 0.00 0.00 41 1017.4
20260510044120 58 25 2.0 6.0 0.00 0.00 0.00 41 1017.4
20260510043645 58 85 2.0 6.0 0.00 0.00 0.00 41 1017.3
20260510043123 58 46 2.0 6.0 0.00 0.00 0.00 40 1017.2
20260510042626 58 40 3.0 6.0 0.00 0.00 0.00 40 1017.1
20260510042127 59 62 1.0 5.0 0.00 0.00 0.00 40 1016.9
20260510041632 59 42 1.0 6.0 0.00 0.00 0.00 40 1016.9
20260510041133 59 9 3.0 6.0 0.00 0.00 0.00 40 1016.9
20260510040619 59 33 2.0 5.0 0.00 0.00 0.00 40 1016.8
20260510040138 59 38 2.0 5.0 0.00 0.00 0.00 40 1016.7
20260510035619 60 101 2.0 5.0 0.00 0.00 0.00 40 1016.6
20260510035156 60 48 2.0 7.0 0.00 0.00 0.00 39 1016.5
20260510034622 60 38 3.0 7.0 0.00 0.00 0.00 39 1016.4
20260510034119 60 31 3.0 7.0 0.00 0.00 0.00 39 1016.4
20260510033624 61 121 2.0 6.0 0.00 0.00 0.00 39 1016.3
20260510033124 61 19 3.0 10.0 0.00 0.00 0.00 39 1016.3
20260510032627 61 80 1.0 10.0 0.00 0.00 0.00 39 1016.2
20260510032126 61 37 4.0 8.0 0.00 0.00 0.00 38 1016.2
20260510031633 61 28 4.0 7.0 0.00 0.00 0.00 39 1016.0
20260510031132 62 40 2.0 7.0 0.00 0.00 0.00 39 1015.8
20260510030616 62 34 2.0 6.0 0.00 0.00 0.00 39 1015.8
20260510030135 62 60 2.0 6.0 0.00 0.00 0.00 39 1015.7
20260510025618 62 32 1.0 8.0 0.00 0.00 0.00 39 1015.6
20260510025117 62 36 3.0 8.0 0.00 0.00 0.00 39 1015.4
20260510024625 62 41 1.0 4.0 0.00 0.00 0.00 39 1015.2
20260510024143 62 52 2.0 5.0 0.00 0.00 0.00 39 1015.1
20260510023630 63 58 1.0 5.0 0.00 0.00 0.00 39 1015.0
20260510023128 63 41 1.0 5.0 0.00 0.00 0.00 39 1014.9
20260510022634 63 57 1.0 4.0 0.00 0.00 0.00 39 1014.7
20260510022113 63 44 2.0 5.0 0.00 0.00 0.00 38 1014.6
20260510021619 64 63 1.0 5.0 0.00 0.00 0.00 38 1014.5
20260510021117 64 357 2.0 5.0 0.00 0.00 0.00 38 1014.4
20260510020621 64 2 1.0 4.0 0.00 0.00 0.00 39 1014.2
20260510020120 64 14 1.0 4.0 0.00 0.00 0.00 38 1014.2
20260510015624 65 42 1.0 5.0 0.00 0.00 0.00 38 1014.1
20260510015122 65 50 1.0 5.0 0.00 0.00 0.00 37 1014.0
20260510014626 65 29 1.0 3.0 0.00 0.00 0.00 38 1013.9
20260510014124 66 25 2.0 7.0 0.00 0.00 0.00 37 1013.7
20260510013628 66 38 3.0 7.0 0.00 0.00 0.00 37 1013.6
20260510013131 66 52 4.0 6.0 0.00 0.00 0.00 36 1013.5
20260510012618 67 56 2.0 6.0 0.00 0.00 0.00 37 1013.4
20260510012152 67 68 3.0 8.0 0.00 0.00 0.00 37 1013.3
20260510011641 67 38 3.0 8.0 0.00 0.00 0.00 37 1013.2
20260510011118 68 327 3.0 6.0 0.00 0.00 0.00 37 1013.1
20260510010621 68 9 2.0 7.0 0.00 0.00 0.00 37 1013.0
20260510010126 68 33 2.0 8.0 0.00 0.00 0.00 38 1012.9
20260510005632 68 45 5.0 8.0 0.00 0.00 0.00 39 1012.8
20260510005117 68 14 5.0 8.0 0.00 0.00 0.00 38 1012.8
20260510004647 68 59 5.0 7.0 0.00 0.00 0.00 39 1012.8
20260510004125 69 35 2.0 6.0 0.00 0.00 0.00 41 1012.7
20260510003635 69 19 1.0 6.0 0.00 0.00 0.00 42 1012.6
20260510003132 68 76 3.0 6.0 0.00 0.00 0.00 41 1012.5
20260510002644 68 42 2.0 6.0 0.00 0.00 0.00 41 1012.5
20260510002125 69 19 3.0 6.0 0.00 0.00 0.00 41 1012.4
20260510001631 69 83 2.0 8.0 0.00 0.00 0.00 42 1012.4
20260510001132 69 337 4.0 8.0 0.00 0.00 0.00 41 1012.5
20260510000640 69 67 2.0 6.0 0.00 0.00 0.00 42 1012.4
20260510000142 69 48 2.0 9.0 0.00 0.00 0.00 42 1012.3
20260509235628 69 19 4.0 9.0 0.00 0.00 0.00 42 1012.3
20260509235145 69 69 1.0 5.0 0.00 0.00 0.00 43 1012.3
20260509234631 69 237 1.0 6.0 0.00 0.00 0.00 44 1012.4
20260509234130 69 43 4.0 6.0 0.00 0.00 0.00 45 1012.4
20260509233634 69 56 2.0 5.0 0.00 0.00 0.00 46 1012.3
20260509233153 69 54 3.0 5.0 0.00 0.00 0.00 46 1012.3
20260509232640 69 19 0.0 3.0 0.00 0.00 0.00 46 1012.2
20260509232138 69 268 1.0 5.0 0.00 0.00 0.00 46 1012.3
20260509231641 69 27 3.0 5.0 0.00 0.00 0.00 46 1012.2
20260509231117 69 83 3.0 6.0 0.00 0.00 0.00 45 1012.2
20260509230624 69 23 3.0 6.0 0.00 0.00 0.00 45 1012.2
20260509230125 70 2 1.0 5.0 0.00 0.00 0.00 46 1012.2
20260509225632 70 56 3.0 4.0 0.00 0.00 0.00 45 1012.1
20260509225130 70 335 0.0 6.0 0.00 0.00 0.00 46 1012.1
20260509224634 70 19 1.0 8.0 0.00 0.00 0.00 46 1012.0
20260509224132 70 349 2.0 8.0 0.00 0.00 0.00 46 1012.1
20260509223619 70 324 4.0 7.0 0.00 0.00 0.00 46 1012.0
20260509223136 70 27 3.0 7.0 0.00 0.00 0.00 45 1011.9
20260509222622 70 49 3.0 6.0 0.00 0.00 0.00 45 1011.9
20260509222122 70 341 3.0 8.0 0.00 0.00 0.00 46 1011.9
20260509221630 70 1 2.0 8.0 0.00 0.00 0.00 47 1011.7